Hourly Weather Akmechet

Today, 11 July, Saturday

Time Temperature Precipitation Wind Pressure Humidity
00:00 +26°C° 0 mm 2 mps 693 mmHg 34%
01:00 +25°C° 0 mm 1 mps 693 mmHg 35%
02:00 +25°C° 0 mm 1 mps 692 mmHg 36%
03:00 +24°C° 0 mm 1 mps 692 mmHg 37%
04:00 +24°C° 0 mm 1 mps 692 mmHg 39%
05:00 +26°C° 0.1 mm 1 mps 693 mmHg 35%
06:00 +28°C° 0.1 mm 1 mps 694 mmHg 31%
07:00 +30°C° 0.1 mm 2 mps 694 mmHg 27%
08:00 +31°C° 0 mm 2 mps 694 mmHg 24%
09:00 +34°C° 0 mm 2 mps 694 mmHg 21%
10:00 +35°C° 0 mm 2 mps 694 mmHg 19%
11:00 +32°C° 0.5 mm 4 mps 694 mmHg 30%
12:00 +28°C° 0.5 mm 5 mps 693 mmHg 41%
13:00 +24°C° 0.5 mm 7 mps 693 mmHg 52%
14:00 +26°C° 0.6 mm 6 mps 693 mmHg 50%
15:00 +26°C° 0.6 mm 5 mps 693 mmHg 48%
16:00 +27°C° 0.6 mm 4 mps 693 mmHg 46%
17:00 +26°C° 0 mm 4 mps 693 mmHg 46%
18:00 +26°C° 0 mm 5 mps 693 mmHg 47%
19:00 +26°C° 0 mm 5 mps 693 mmHg 47%
20:00 +25°C° 0 mm 4 mps 693 mmHg 47%
21:00 +25°C° 0 mm 3 mps 693 mmHg 47%
22:00 +24°C° 0 mm 2 mps 692 mmHg 48%
23:00 +24°C° 0 mm 1 mps 692 mmHg 47%

Tomorrow, 12 July, Sunday

Time Temperature Precipitation Wind Pressure Humidity
00:00 +24°C° 0 mm 1 mps 692 mmHg 47%
01:00 +24°C° 0 mm 1 mps 692 mmHg 46%
02:00 +23°C° 0 mm 1 mps 692 mmHg 46%
03:00 +23°C° 0 mm 1 mps 692 mmHg 46%
04:00 +23°C° 0 mm 1 mps 692 mmHg 46%
05:00 +25°C° 0.1 mm 1 mps 692 mmHg 42%
06:00 +26°C° 0.1 mm 1 mps 693 mmHg 38%
07:00 +28°C° 0.1 mm 1 mps 693 mmHg 33%
08:00 +29°C° 0 mm 1 mps 693 mmHg 31%
09:00 +30°C° 0 mm 1 mps 693 mmHg 28%
10:00 +32°C° 0 mm 1 mps 694 mmHg 26%
11:00 +33°C° 0 mm 1 mps 693 mmHg 24%
12:00 +35°C° 0 mm 2 mps 693 mmHg 22%
13:00 +36°C° 0 mm 2 mps 693 mmHg 20%
14:00 +36°C° 0 mm 2 mps 693 mmHg 20%
15:00 +35°C° 0 mm 2 mps 693 mmHg 21%
16:00 +35°C° 0 mm 2 mps 693 mmHg 21%
17:00 +32°C° 0 mm 2 mps 693 mmHg 25%
18:00 +30°C° 0 mm 3 mps 692 mmHg 29%
19:00 +29°C° 0 mm 4 mps 692 mmHg 33%
20:00 +28°C° 0 mm 3 mps 692 mmHg 35%
21:00 +27°C° 0 mm 3 mps 692 mmHg 38%
22:00 +26°C° 0 mm 3 mps 692 mmHg 41%
23:00 +25°C° 0 mm 2 mps 692 mmHg 41%

Day after tomorrow, 13 July, Monday

Time Temperature Precipitation Wind Pressure Humidity
00:00 +25°C° 0 mm 2 mps 691 mmHg 41%
01:00 +25°C° 0 mm 1 mps 691 mmHg 41%
02:00 +25°C° 0 mm 1 mps 691 mmHg 41%
03:00 +25°C° 0 mm 2 mps 691 mmHg 40%
04:00 +25°C° 0 mm 2 mps 691 mmHg 40%
05:00 +27°C° 0 mm 2 mps 691 mmHg 35%
06:00 +29°C° 0 mm 2 mps 692 mmHg 31%
07:00 +31°C° 0 mm 1 mps 692 mmHg 26%
08:00 +32°C° 0 mm 1 mps 692 mmHg 24%
09:00 +34°C° 0 mm 1 mps 692 mmHg 22%
10:00 +35°C° 0 mm 1 mps 693 mmHg 19%
11:00 +37°C° 0 mm 2 mps 692 mmHg 18%
12:00 +38°C° 0 mm 2 mps 692 mmHg 17%
13:00 +38°C° 0 mm 2 mps 692 mmHg 16%
14:00 +38°C° 0 mm 2 mps 691 mmHg 17%
15:00 +37°C° 0 mm 3 mps 691 mmHg 18%
16:00 +37°C° 0 mm 3 mps 691 mmHg 18%
17:00 +35°C° 0.1 mm 3 mps 691 mmHg 22%
18:00 +34°C° 0.1 mm 3 mps 690 mmHg 25%
19:00 +31°C° 0.1 mm 3 mps 690 mmHg 28%
20:00 +30°C° 0 mm 2 mps 690 mmHg 29%
21:00 +29°C° 0 mm 2 mps 690 mmHg 30%
22:00 +29°C° 0 mm 2 mps 690 mmHg 31%
23:00 +28°C° 0 mm 2 mps 690 mmHg 31%

14 July, Tuesday

Time Temperature Precipitation Wind Pressure Humidity
00:00 +28°C° 0 mm 2 mps 690 mmHg 32%
01:00 +27°C° 0 mm 1 mps 690 mmHg 32%
02:00 +27°C° 0 mm 1 mps 690 mmHg 33%
03:00 +27°C° 0 mm 1 mps 690 mmHg 33%
04:00 +27°C° 0 mm 1 mps 691 mmHg 33%
05:00 +29°C° 0 mm 1 mps 691 mmHg 30%
06:00 +31°C° 0 mm 1 mps 692 mmHg 26%
07:00 +33°C° 0 mm 1 mps 692 mmHg 22%
08:00 +35°C° 0 mm 1 mps 693 mmHg 20%
09:00 +36°C° 0 mm 1 mps 693 mmHg 18%
10:00 +39°C° 0 mm 1 mps 693 mmHg 15%
11:00 +40°C° 0 mm 1 mps 693 mmHg 14%
12:00 +40°C° 0 mm 2 mps 693 mmHg 14%
13:00 +42°C° 0 mm 3 mps 692 mmHg 13%
14:00 +42°C° 0 mm 3 mps 692 mmHg 13%
15:00 +42°C° 0 mm 3 mps 692 mmHg 13%
16:00 +42°C° 0 mm 3 mps 692 mmHg 13%
17:00 +39°C° 0 mm 3 mps 692 mmHg 14%
18:00 +37°C° 0 mm 2 mps 691 mmHg 16%
19:00 +35°C° 0 mm 2 mps 691 mmHg 18%
20:00 +34°C° 0 mm 2 mps 691 mmHg 19%
21:00 +32°C° 0 mm 2 mps 691 mmHg 20%
22:00 +31°C° 0 mm 2 mps 691 mmHg 21%
23:00 +30°C° 0 mm 1 mps 691 mmHg 22%

15 July, Wednesday

Time Temperature Precipitation Wind Pressure Humidity
00:00 +29°C° 0 mm 1 mps 691 mmHg 22%
01:00 +29°C° 0 mm 1 mps 691 mmHg 23%
02:00 +28°C° 0 mm 1 mps 691 mmHg 24%
03:00 +28°C° 0 mm 1 mps 691 mmHg 24%
04:00 +28°C° 0 mm 2 mps 691 mmHg 25%
05:00 +30°C° 0 mm 1 mps 691 mmHg 22%
06:00 +33°C° 0 mm 1 mps 692 mmHg 20%
07:00 +35°C° 0 mm 1 mps 693 mmHg 17%
08:00 +37°C° 0 mm 2 mps 693 mmHg 16%
09:00 +39°C° 0 mm 2 mps 693 mmHg 14%
10:00 +40°C° 0 mm 3 mps 693 mmHg 13%
11:00 +42°C° 0 mm 3 mps 693 mmHg 12%
12:00 +43°C° 0 mm 3 mps 693 mmHg 11%
13:00 +43°C° 0 mm 3 mps 692 mmHg 10%
14:00 +43°C° 0 mm 3 mps 692 mmHg 9%
15:00 +43°C° 0 mm 3 mps 692 mmHg 9%
16:00 +43°C° 0 mm 4 mps 691 mmHg 9%
17:00 +41°C° 0 mm 4 mps 691 mmHg 12%
18:00 +38°C° 0 mm 4 mps 691 mmHg 14%
19:00 +36°C° 0 mm 3 mps 691 mmHg 16%
20:00 +35°C° 0 mm 3 mps 691 mmHg 19%
21:00 +32°C° 0 mm 2 mps 691 mmHg 21%
22:00 +31°C° 0 mm 2 mps 691 mmHg 24%
23:00 +30°C° 0 mm 2 mps 691 mmHg 24%

16 July, Thursday

Time Temperature Precipitation Wind Pressure Humidity
00:00 +30°C° 0 mm 2 mps 690 mmHg 24%
01:00 +29°C° 0 mm 2 mps 690 mmHg 25%
02:00 +29°C° 0 mm 2 mps 690 mmHg 25%
03:00 +28°C° 0 mm 2 mps 690 mmHg 26%
04:00 +28°C° 0 mm 2 mps 690 mmHg 26%
05:00 +29°C° 0 mm 2 mps 691 mmHg 24%
06:00 +31°C° 0 mm 2 mps 691 mmHg 22%
07:00 +34°C° 0 mm 2 mps 691 mmHg 20%
08:00 +35°C° 0 mm 2 mps 692 mmHg 18%
09:00 +37°C° 0 mm 2 mps 692 mmHg 16%
10:00 +38°C° 0 mm 2 mps 692 mmHg 14%
11:00 +39°C° 0 mm 2 mps 692 mmHg 13%
12:00 +40°C° 0 mm 2 mps 692 mmHg 11%
13:00 +41°C° 0 mm 2 mps 692 mmHg 10%
14:00 +42°C° 0 mm 3 mps 692 mmHg 11%
15:00 +42°C° 0 mm 4 mps 691 mmHg 11%
16:00 +41°C° 0 mm 5 mps 691 mmHg 11%
17:00 +40°C° 0 mm 5 mps 691 mmHg 13%
18:00 +37°C° 0 mm 5 mps 691 mmHg 15%
19:00 +35°C° 0 mm 5 mps 691 mmHg 17%
20:00 +34°C° 0 mm 4 mps 691 mmHg 18%
21:00 +33°C° 0 mm 4 mps 691 mmHg 19%
22:00 +30°C° 0 mm 3 mps 691 mmHg 21%
23:00 +29°C° 0 mm 3 mps 691 mmHg 23%
Show more